Location: Unspecified
(41.9031°N, 12.4386°E)
Time: 06:03:03
(UTC+02:00)

ISS - Pass Details

Date: 02 April 2020
Orbit: 417 x 423 km, 51.6° (Epoch: 29 March)

Event Time Altitude Azimuth Distance (km) Brightness Sun altitude
Rises 20:11:13 0° 308° (NW) 2,361 1.4 -7.0°
Reaches altitude 10° 20:13:32 10° 321° (NW) 1,496 -0.1 -7.4°
Maximum altitude 20:16:27 27° 22° (NNE) 843 -2.3 -8.0°
Drops below altitude 10° 20:19:22 10° 82° (E) 1,493 -1.5 -8.5°
Enters shadow 20:19:22 10° 82° (E) 1,498 -1.5 -8.5°
